QPF
0.00 0.00 0.00 0.00 0.00 0.00 0.00 0.00 0.00 0.00 0.00 0.00 0.00 0.00 0.00 0.00 0.00 0.00 0.00 0.00 0.00 0.00 0.00 0.00 0.00 0.00 0.00 0.00 0.00 0.00 0.00 0.00 0.00 0.00 0.00 0.00 0.00 0.00 0.00 0.00 0.00 0.00 0.01 0.03 0.00
0.00 0.00 0.00 0.00 0.00 0.00 0.00 0.00 0.00 0.00 0.00 0.00 0.00 0.00 0.00 0.00 0.00 0.00 0.00 0.00 0.00 0.00 0.00 0.00 0.00 0.00 0.00 0.00 0.00 0.00 0.00 0.00 0.00 0.00 0.00 0.00 0.00 0.00 0.00 0.00 0.00 0.00 0.00 0.01 0.00
0.00 0.00 0.00 0.00 0.00 0.00 0.00 0.00 0.00 0.00 0.00 0.00 0.00 0.00 0.00 0.00 0.00 0.00 0.00 0.00 0.00 0.00 0.00 0.00 0.00 0.00 0.00 0.00 0.00 0.00 0.00 0.00 0.00 0.00 0.00 0.00 0.00 0.00 0.00 0.00 0.00 0.00 0.00 0.00 0.00
0.00 0.00 0.00 0.00 0.00 0.00 0.00 0.00 0.00 0.00 0.00 0.00 0.00 0.00 0.00 0.00 0.00 0.00 0.00 0.00 0.00 0.00 0.00 0.00 0.00 0.00 0.00 0.00 0.00 0.00 0.00 0.00 0.00 0.00 0.00 0.00 0.00 0.00 0.00 0.00 0.00 0.00 0.00 0.00 0.00
0.00 0.00 0.00 0.00 0.00 0.00 0.00 0.00 0.00 0.00 0.00 0.00 0.00 0.00 0.00 0.00 0.00 0.00 0.00 0.00 0.00 0.00 0.00 0.00 0.00 0.00 0.00 0.00 0.00 0.00 0.00 0.00 0.00 0.00 0.00 0.00 0.00 0.00 0.00 0.00 0.00 0.00 0.01 0.00 0.00
0.00 0.00 0.00 0.00 0.00 0.00 0.00 0.00 0.00 0.00 0.00 0.00 0.00 0.00 0.00 0.00 0.00 0.00 0.00 0.00 0.00 0.00 0.00 0.00 0.00 0.00 0.00 0.00 0.00 0.00 0.00 0.00 0.00 0.00 0.00 0.00 0.00 0.00 0.00 0.00 0.00 0.00 0.00 0.00 0.00
0.00 0.00 0.00 0.00 0.00 0.00 0.00 0.00 0.00 0.00 0.00 0.00 0.00 0.00 0.00 0.00 0.00 0.00 0.00 0.00 0.00 0.00 0.00 0.00 0.00 0.00 0.00 0.00 0.00 0.00 0.00 0.00 0.00 0.00 0.00 0.00 0.00 0.00 0.00 0.00 0.00 0.00 0.00 0.00 0.00
0.00 0.00 0.00 0.00 0.00 0.00 0.00 0.00 0.00 0.00 0.00 0.00 0.00 0.00 0.00 0.00 0.00 0.00 0.00 0.00 0.00 0.00 0.00 0.00 0.00 0.00 0.00 0.00 0.00 0.00 0.00 0.00 0.00 0.00 0.00 0.00 0.00 0.00 0.00 0.00 0.00 0.00 0.00 0.00 0.00
0.00 0.00 0.00 0.00 0.00 0.00 0.00 0.00 0.00 0.00 0.00 0.00 0.00 0.00 0.00 0.00 0.00 0.00 0.00 0.00 0.00 0.00 0.00 0.00 0.00 0.00 0.00 0.00 0.00 0.00 0.00 0.00 0.00 0.00 0.00 0.00 0.00 0.00 0.00 0.00 0.00 0.00 0.00 0.00 0.00
0.00 0.00 0.00 0.00 0.00 0.00 0.00 0.00 0.00 0.00 0.00 0.00 0.00 0.00 0.00 0.00 0.00 0.00 0.00 0.00 0.00 0.00 0.00 0.00 0.00 0.00 0.00 0.00 0.00 0.00 0.00 0.00 0.00 0.00 0.00 0.00 0.00 0.00 0.00 0.00 0.00 0.00 0.00 0.00 0.00
0.00 0.00 0.00 0.00 0.00 0.00 0.00 0.00 0.00 0.00 0.00 0.00 0.00 0.00 0.00 0.00 0.00 0.00 0.00 0.00 0.00 0.00 0.00 0.00 0.00 0.00 0.00 0.00 0.00 0.00 0.00 0.00 0.00 0.00 0.00 0.00 0.00 0.00 0.00 0.00 0.00 0.00 0.00 0.00 0.00
0.00 0.00 0.00 0.00 0.00 0.00 0.00 0.00 0.00 0.00 0.00 0.00 0.00 0.00 0.00 0.00 0.00 0.00 0.00 0.00 0.00 0.00 0.00 0.00 0.00 0.00 0.00 0.00 0.00 0.00 0.00 0.00 0.00 0.00 0.00 0.00 0.00 0.00 0.00 0.00 0.00 0.00 0.00 0.00 0.00
0.00 0.00 0.00 0.00 0.00 0.00 0.00 0.00 0.00 0.00 0.00 0.00 0.00 0.00 0.00 0.00 0.00 0.00 0.00 0.00 0.00 0.00 0.00 0.00 0.00 0.00 0.00 0.00 0.00 0.00 0.00 0.00 0.00 0.00 0.00 0.00 0.00 0.00 0.00 0.00 0.00 0.00 0.00 0.00 0.00
0.00 0.00 0.00 0.00 0.00 0.00 0.00 0.00 0.00 0.00 0.00 0.00 0.00 0.00 0.00 0.00 0.00 0.00 0.00 0.00 0.00 0.00 0.00 0.00 0.00 0.00 0.00 0.00 0.00 0.00 0.00 0.00 0.00 0.00 0.00 0.00 0.00 0.00 0.00 0.00 0.00 0.00 0.00 0.00 0.00
0.00 0.00 0.00 0.00 0.00 0.00 0.00 0.00 0.00 0.00 0.00 0.00 0.00 0.00 0.00 0.00 0.00 0.00 0.00 0.00 0.00 0.00 0.00 0.00 0.00 0.00 0.00 0.00 0.00 0.00 0.00 0.00 0.00 0.00 0.00 0.00 0.00 0.00 0.00 0.00 0.00 0.00 0.00 0.00 0.00
0.00 0.00 0.00 0.00 0.00 0.00 0.00 0.00 0.00 0.00 0.00 0.00 0.00 0.00 0.00 0.00 0.00 0.00 0.00 0.00 0.00 0.00 0.00 0.00 0.00 0.00 0.00 0.00 0.00 0.00 0.00 0.00 0.00 0.00 0.00 0.00 0.00 0.00 0.00 0.00 0.00 0.00 0.00 0.00 0.00
0.00 0.00 0.00 0.00 0.00 0.00 0.00 0.00 0.00 0.00 0.00 0.00 0.00 0.00 0.00 0.00 0.00 0.00 0.00 0.00 0.00 0.00 0.00 0.00 0.00 0.00 0.00 0.00 0.00 0.00 0.00 0.00 0.00 0.00 0.00 0.00 0.00 0.00 0.00 0.00 0.00 0.00 0.00 0.00 0.00
0.00 0.00 0.00 0.00 0.00 0.00 0.00 0.00 0.00 0.00 0.00 0.00 0.00 0.00 0.00 0.00 0.00 0.00 0.00 0.00 0.00 0.00 0.00 0.00 0.00 0.00 0.00 0.00 0.00 0.00 0.00 0.00 0.00 0.00 0.00 0.00 0.00 0.00 0.00 0.00 0.00 0.00 0.00 0.00 0.00
0.00 0.00 0.00 0.00 0.00 0.00 0.00 0.00 0.00 0.00 0.00 0.00 0.00 0.00 0.00 0.00 0.00 0.00 0.00 0.00 0.00 0.00 0.00 0.00 0.00 0.00 0.00 0.00 0.00 0.00 0.00 0.00 0.01 0.00 0.01 0.00 0.00 0.00 0.00 0.00 0.00 0.00 0.00 0.00 0.00
0.00 0.00 0.00 0.00 0.00 0.00 0.00 0.00 0.00 0.00 0.00 0.00 0.00 0.00 0.00 0.00 0.00 0.00 0.00 0.00 0.00 0.00 0.00 0.00 0.00 0.00 0.00 0.00 0.00 0.00 0.00 0.00 0.00 0.04 0.03 0.00 0.00 0.01 0.00 0.00 0.00 0.00 0.00 0.00 0.00
0.00 0.00 0.00 0.00 0.00 0.00 0.00 0.00 0.00 0.00 0.00 0.00 0.00 0.00 0.00 0.00 0.00 0.00 0.00 0.00 0.00 0.00 0.00 0.00 0.00 0.00 0.00 0.00 0.00 0.00 0.00 0.00 0.00 0.02 0.06 0.02 0.03 0.02 0.01 0.01 0.00 0.00 0.00 0.00 0.00
0.00 0.00 0.00 0.00 0.00 0.00 0.00 0.00 0.00 0.00 0.00 0.00 0.00 0.00 0.00 0.00 0.00 0.00 0.00 0.00 0.00 0.00 0.00 0.00 0.00 0.00 0.00 0.00 0.00 0.00 0.00 0.00 0.00 0.02 0.04 0.03 0.04 0.01 0.01 0.01 0.00 0.00 0.00 0.00 0.00
0.00 0.00 0.00 0.00 0.00 0.00 0.00 0.00 0.00 0.00 0.00 0.00 0.00 0.00 0.00 0.00 0.00 0.00 0.00 0.00 0.00 0.00 0.00 0.00 0.00 0.00 0.00 0.00 0.00 0.00 0.00 0.00 0.00 0.00 0.00 0.01 0.01 0.00 0.00 0.00 0.00 0.00 0.00 0.00 0.00
0.00 0.00 0.00 0.00 0.00 0.00 0.00 0.00 0.00 0.00 0.00 0.00 0.00 0.00 0.00 0.00 0.00 0.00 0.00 0.00 0.00 0.00 0.00 0.00 0.00 0.00 0.00 0.00 0.00 0.00 0.00 0.00 0.00 0.00 0.00 0.00 0.00 0.00 0.00 0.00 0.00 0.00 0.00 0.00 0.00
0.00 0.00 0.00 0.00 0.00 0.00 0.00 0.00 0.00 0.00 0.00 0.00 0.00 0.00 0.00 0.00 0.00 0.00 0.00 0.00 0.00 0.00 0.00 0.00 0.00 0.00 0.00 0.00 0.00 0.00 0.00 0.00 0.00 0.00 0.00 0.00 0.00 0.00 0.00 0.00 0.00 0.00 0.00 0.00 0.00
0.00 0.00 0.00 0.00 0.00 0.00 0.00 0.00 0.00 0.00 0.00 0.00 0.00 0.00 0.00 0.00 0.00 0.00 0.00 0.00 0.00 0.00 0.00 0.00 0.00 0.00 0.00 0.00 0.00 0.00 0.00 0.00 0.00 0.00 0.00 0.00 0.00 0.00 0.00 0.00 0.00 0.00 0.00 0.00 0.00
0.00 0.00 0.00 0.00 0.00 0.00 0.00 0.00 0.00 0.00 0.00 0.00 0.00 0.00 0.00 0.00 0.00 0.00 0.00 0.00 0.00 0.00 0.00 0.00 0.00 0.00 0.00 0.00 0.00 0.00 0.00 0.00 0.00 0.00 0.00 0.00 0.00 0.00 0.00 0.00 0.00 0.00 0.00 0.00 0.00
MSLP
1018.20 1017.85 1017.51 1017.17 1016.81 1016.50 1016.24 1016.01 1015.78 1015.55 1015.39 1015.21 1015.02 1014.93 1014.80 1014.64 1014.31 1013.76 1011.71 1009.53 1009.42 1010.02 1010.43 1009.69 1009.64 1008.88 1008.30 1007.48 1006.83 1006.23 1005.51 1004.13 1002.70 1001.13 999.93 999.41 999.60 1000.02 1000.34 1000.49 1000.68 1001.91 1005.08 1006.24 1006.69
1018.43 1017.98 1017.54 1017.12 1016.71 1016.38 1016.10 1015.85 1015.61 1015.41 1015.23 1015.06 1014.90 1014.85 1014.82 1014.75 1013.74 1011.51 1009.14 1009.27 1009.48 1009.89 1010.05 1009.08 1008.45 1008.12 1007.54 1006.86 1006.33 1005.75 1005.01 1003.73 1002.22 1000.88 1000.45 999.58 1000.05 1000.35 1000.50 1000.86 1001.10 1001.90 1004.30 1005.88 1006.00
1018.43 1017.88 1017.37 1016.94 1016.59 1016.27 1015.93 1015.64 1015.42 1015.19 1014.99 1014.83 1014.77 1014.78 1014.82 1014.66 1012.66 1008.36 1008.39 1009.06 1009.39 1009.71 1009.13 1008.06 1007.65 1007.36 1006.87 1006.23 1005.50 1005.04 1004.44 1003.26 1001.86 1001.48 1001.10 1000.83 1000.59 1001.03 1000.78 1000.80 1000.73 1000.98 1002.09 1003.51 1004.40
1018.28 1017.74 1017.25 1016.79 1016.37 1016.01 1015.70 1015.42 1015.15 1014.94 1014.72 1014.64 1014.66 1014.72 1014.75 1014.17 1010.19 1008.39 1008.85 1009.10 1009.46 1009.53 1009.16 1007.84 1007.30 1006.65 1006.33 1005.43 1004.78 1004.33 1003.94 1003.29 1002.49 1002.11 1001.79 1001.69 1001.90 1001.55 1000.95 1000.88 1000.68 1001.52 1001.77 1003.44 1004.16
1018.21 1017.66 1017.07 1016.54 1016.11 1015.73 1015.40 1015.11 1014.79 1014.62 1014.51 1014.49 1014.54 1014.71 1014.74 1012.17 1008.70 1008.61 1008.99 1009.33 1009.57 1009.66 1008.55 1007.31 1006.67 1006.08 1005.53 1004.57 1003.95 1003.77 1003.37 1003.14 1002.42 1002.39 1002.36 1002.39 1002.09 1001.71 1001.41 1001.07 1000.67 1002.29 1005.40 1002.82 1003.63
1017.97 1017.37 1016.81 1016.26 1015.77 1015.37 1015.02 1014.72 1014.47 1014.31 1014.29 1014.39 1014.52 1014.69 1013.71 1009.76 1007.05 1008.36 1008.34 1008.98 1008.77 1008.80 1007.84 1006.69 1005.88 1005.43 1004.89 1004.24 1003.60 1003.22 1003.04 1002.97 1002.63 1002.28 1002.33 1002.41 1002.08 1001.81 1001.75 1001.20 1000.72 1001.11 1002.38 1002.54 1003.13
1017.80 1017.11 1016.52 1015.93 1015.36 1014.93 1014.58 1014.30 1014.08 1013.95 1013.98 1014.17 1014.36 1013.88 1011.35 1008.01 1006.53 1007.59 1007.96 1008.26 1008.26 1007.78 1006.78 1006.31 1005.78 1005.54 1005.15 1004.52 1003.79 1003.51 1003.35 1002.97 1002.46 1002.34 1002.04 1002.09 1001.70 1001.36 1001.42 1000.99 1001.13 1001.18 1001.69 1001.89 1002.25
1017.56 1016.84 1016.19 1015.63 1015.05 1014.54 1014.18 1013.93 1013.66 1013.51 1013.76 1014.00 1014.22 1013.27 1009.50 1006.04 1006.48 1006.70 1007.42 1007.55 1007.55 1007.07 1006.59 1006.12 1006.09 1006.20 1005.61 1004.96 1004.15 1003.84 1003.36 1002.69 1001.95 1001.57 1001.63 1002.08 1001.05 1000.90 1000.97 1000.83 1000.93 1000.94 1001.68 1002.08 1002.43
1017.42 1016.68 1015.90 1015.26 1014.75 1014.30 1013.95 1013.62 1013.36 1013.42 1013.57 1013.84 1013.68 1011.94 1008.11 1007.06 1006.69 1006.31 1006.54 1006.76 1006.86 1006.79 1006.68 1006.65 1006.57 1006.32 1005.87 1005.12 1004.41 1003.57 1002.91 1002.09 1001.14 1000.62 1000.33 1001.03 1000.99 1000.81 1000.45 1000.43 1000.86 1000.90 1001.72 1002.08 1002.58
1017.22 1016.32 1015.68 1015.08 1014.57 1014.17 1013.86 1013.64 1013.36 1013.44 1013.29 1012.75 1011.40 1010.30 1007.22 1005.95 1005.68 1006.12 1006.23 1006.41 1006.39 1006.85 1006.77 1007.00 1006.94 1006.36 1005.60 1004.89 1003.61 1002.69 1001.82 1001.19 1000.55 1000.17 999.96 1000.47 1000.44 1000.68 1000.57 999.92 1000.17 1000.88 1001.52 1002.18 1002.82
1017.10 1016.30 1015.47 1014.85 1014.51 1014.25 1013.69 1013.33 1013.15 1012.14 1010.95 1008.91 1007.79 1006.84 1005.46 1005.63 1006.00 1006.05 1006.05 1006.30 1006.20 1006.67 1006.54 1006.47 1006.30 1005.35 1004.64 1004.01 1003.47 1002.93 1002.32 1001.61 1001.10 1000.24 1000.00 1000.05 1000.34 1000.22 1000.20 999.85 999.99 1000.76 1001.88 1002.82 1003.45
1017.32 1016.20 1015.29 1014.50 1014.28 1014.17 1013.98 1011.12 1010.41 1009.85 1008.75 1006.97 1006.15 1005.51 1005.15 1004.84 1005.32 1005.35 1005.63 1006.13 1006.07 1006.01 1006.05 1006.08 1005.08 1004.87 1004.24 1003.65 1003.16 1002.72 1002.43 1002.23 1002.02 1001.38 1000.87 1000.34 1000.06 1000.38 999.90 999.93 1000.40 1001.13 1001.99 1002.97 1004.26
1017.48 1016.42 1015.49 1014.43 1013.67 1013.22 1011.09 1010.26 1009.45 1009.12 1008.23 1005.32 1004.77 1004.48 1004.57 1004.96 1004.65 1004.54 1005.35 1005.68 1005.58 1005.65 1005.33 1004.69 1004.16 1003.57 1003.27 1003.22 1003.16 1002.74 1002.76 1002.76 1002.41 1001.74 1000.95 1000.68 1000.28 1000.40 1000.03 1000.19 1000.88 1001.64 1002.39 1003.47 1004.47
1017.53 1016.51 1015.49 1014.55 1013.43 1010.53 1009.68 1009.61 1009.11 1009.31 1007.74 1004.65 1004.42 1004.07 1004.49 1004.50 1004.33 1004.36 1004.47 1005.34 1005.29 1004.99 1004.56 1003.94 1003.48 1003.08 1002.63 1002.63 1003.13 1002.75 1002.84 1002.64 1002.56 1002.24 1001.31 1000.82 999.91 1000.15 1000.23 1000.48 1001.22 1002.14 1003.30 1004.24 1005.08
1017.60 1016.67 1015.48 1015.58 1013.23 1010.44 1009.98 1009.39 1009.45 1009.31 1006.11 1003.91 1003.74 1004.23 1004.03 1004.09 1003.75 1004.00 1004.37 1004.42 1004.68 1004.44 1004.63 1003.68 1003.07 1002.59 1002.16 1002.25 1002.65 1002.34 1002.89 1002.76 1002.56 1002.04 1001.88 1001.25 1000.50 999.55 999.80 1000.07 1001.07 1002.33 1003.54 1004.57 1005.68
1017.53 1016.52 1015.93 1013.40 1012.51 1010.51 1009.85 1009.63 1009.53 1008.50 1004.86 1003.40 1003.40 1003.77 1003.90 1003.79 1003.74 1003.73 1004.27 1004.39 1004.37 1004.39 1004.09 1003.54 1003.25 1002.79 1002.28 1001.96 1002.28 1002.61 1002.99 1003.10 1003.41 1003.14 1002.10 1001.42 1001.33 1000.05 999.42 999.16 1000.46 1002.16 1003.42 1004.67 1005.72
1017.20 1015.77 1015.93 1013.66 1011.38 1010.48 1010.19 1009.44 1008.61 1006.35 1004.13 1003.48 1003.65 1004.15 1003.93 1003.61 1003.66 1003.93 1004.01 1004.17 1004.42 1004.29 1003.94 1003.58 1002.95 1002.59 1002.36 1002.46 1002.62 1003.09 1003.61 1003.69 1003.98 1003.38 1002.13 1002.05 1001.43 1000.45 1000.91 999.49 999.17 1002.03 1003.72 1005.18 1006.03
1016.72 1014.77 1013.34 1012.38 1011.11 1010.82 1010.42 1009.46 1007.83 1004.98 1003.97 1004.53 1004.87 1004.83 1004.67 1004.29 1003.72 1004.22 1004.24 1004.04 1003.69 1003.80 1004.03 1003.73 1003.10 1002.88 1002.79 1003.35 1004.00 1004.38 1005.18 1006.13 1007.04 1005.50 1003.58 1002.68 1001.76 1002.13 1002.40 1000.34 1000.19 1002.03 1004.17 1005.61 1006.28
1016.50 1013.07 1011.46 1011.27 1011.16 1010.98 1010.41 1008.65 1006.62 1005.69 1005.60 1005.62 1005.72 1005.26 1004.64 1004.08 1004.32 1004.63 1004.24 1004.26 1003.76 1004.41 1004.80 1004.93 1004.20 1004.78 1004.75 1005.29 1005.67 1005.30 1005.89 1007.00 1008.20 1009.05 1007.47 1005.53 1004.19 1004.48 1004.28 1004.42 1004.11 1004.70 1004.50 1005.76 1006.89
1017.14 1013.55 1010.82 1011.02 1011.01 1010.94 1010.28 1008.68 1006.83 1006.56 1007.07 1006.96 1006.60 1006.01 1005.20 1004.44 1004.22 1004.41 1004.50 1004.03 1004.07 1005.02 1005.67 1006.15 1005.64 1005.68 1005.54 1006.20 1006.30 1006.53 1007.57 1008.15 1008.67 1010.39 1010.11 1008.67 1008.35 1009.97 1009.71 1007.40 1005.83 1007.37 1007.07 1006.96 1007.90
1016.80 1012.85 1010.99 1011.04 1010.78 1010.53 1009.54 1007.77 1006.99 1007.06 1007.99 1008.03 1007.55 1006.99 1006.40 1005.85 1005.59 1005.13 1004.92 1004.93 1005.25 1005.73 1006.56 1007.13 1007.65 1006.97 1006.44 1006.13 1006.17 1007.21 1007.64 1009.85 1011.57 1012.13 1012.49 1012.24 1012.14 1013.67 1012.85 1012.52 1010.16 1010.88 1009.00 1009.34 1008.76
1016.90 1013.15 1010.62 1011.00 1010.65 1009.27 1008.71 1008.91 1009.37 1008.33 1008.32 1008.68 1008.52 1008.16 1007.80 1007.34 1006.73 1006.17 1005.89 1005.96 1006.73 1007.25 1007.51 1007.94 1008.44 1007.80 1007.34 1006.95 1007.12 1007.88 1009.32 1011.06 1012.37 1013.07 1014.37 1014.46 1014.23 1014.50 1015.20 1015.33 1014.22 1014.42 1013.85 1011.85 1010.15
1018.06 1013.68 1010.88 1010.93 1010.37 1009.84 1009.34 1009.14 1009.29 1008.94 1008.94 1008.79 1008.58 1008.47 1008.36 1008.13 1007.73 1007.23 1007.00 1007.11 1007.78 1008.21 1008.74 1009.28 1009.09 1008.94 1008.21 1007.77 1008.60 1009.35 1009.96 1010.99 1012.35 1014.44 1014.05 1014.61 1013.27 1013.54 1014.33 1014.81 1014.76 1015.51 1015.00 1013.45 1012.46
1018.66 1014.28 1011.89 1011.74 1011.54 1011.85 1011.40 1011.00 1010.22 1009.45 1009.02 1009.39 1009.47 1009.22 1009.08 1008.55 1008.34 1007.92 1007.64 1007.50 1008.27 1008.80 1009.94 1010.55 1010.60 1010.21 1009.58 1008.85 1009.27 1009.72 1010.09 1010.69 1011.67 1012.83 1012.82 1012.69 1012.60 1013.59 1013.79 1014.07 1014.29 1015.06 1014.72 1013.49 1012.25
1018.50 1015.67 1015.18 1013.95 1013.01 1013.36 1013.25 1012.36 1011.41 1010.64 1010.19 1009.58 1009.70 1009.62 1009.49 1009.01 1008.66 1008.23 1007.95 1007.89 1008.40 1009.51 1010.17 1010.93 1011.00 1010.61 1010.03 1009.50 1008.89 1008.76 1009.07 1009.53 1010.03 1010.58 1010.93 1011.15 1010.90 1011.56 1012.01 1012.41 1012.80 1013.09 1013.97 1012.32 1011.56
1019.67 1018.80 1017.37 1016.23 1015.25 1014.21 1013.34 1012.60 1011.72 1011.00 1010.76 1010.07 1009.91 1009.86 1009.82 1009.45 1009.04 1008.68 1008.27 1007.94 1007.98 1008.84 1009.85 1010.47 1011.10 1011.13 1010.63 1009.94 1009.26 1008.98 1008.87 1008.81 1008.79 1009.11 1009.09 1009.21 1009.04 1009.62 1010.02 1010.97 1011.28 1011.91 1012.13 1011.82 1011.55
1020.86 1020.38 1019.36 1017.29 1015.99 1014.81 1013.26 1012.37 1012.07 1012.18 1011.69 1011.44 1011.12 1010.80 1010.32 1009.92 1010.34 1010.10 1009.52 1009.26 1008.89 1008.74 1009.43 1010.22 1010.67 1011.06 1010.85 1010.47 1009.58 1008.75 1008.43 1008.25 1008.31 1008.13 1008.19 1008.27 1008.38 1008.47 1009.28 1010.25 1011.07 1011.30 1011.69 1012.12 1012.00
Thickness
5727 5730 5734 5737 5740 5743 5746 5748 5750 5753 5754 5756 5758 5759 5760 5762 5765 5771 5777 5802 5804 5803 5800 5804 5801 5805 5810 5806 5816 5820 5785 5784 5805 5825 5849 5875 5855 5872 5876 5865 5871 5865 5821 5828 5842
5725 5729 5733 5737 5740 5743 5746 5749 5751 5754 5755 5757 5758 5759 5759 5760 5769 5780 5806 5807 5806 5803 5797 5797 5795 5802 5795 5801 5807 5799 5784 5796 5833 5852 5845 5868 5852 5856 5851 5851 5855 5858 5834 5831 5838
5725 5729 5733 5737 5740 5743 5747 5750 5752 5755 5757 5758 5759 5759 5759 5760 5771 5802 5813 5808 5806 5804 5807 5811 5810 5803 5791 5804 5806 5805 5788 5817 5836 5843 5849 5842 5844 5853 5844 5837 5858 5855 5849 5847 5844
5724 5729 5733 5737 5741 5744 5748 5751 5754 5756 5758 5759 5759 5758 5758 5764 5772 5807 5809 5808 5805 5803 5802 5805 5802 5793 5787 5789 5811 5795 5812 5819 5828 5837 5836 5830 5838 5834 5843 5848 5868 5859 5858 5840 5836
5723 5728 5733 5738 5742 5745 5749 5752 5755 5757 5759 5759 5759 5757 5760 5769 5788 5808 5806 5804 5802 5799 5797 5800 5796 5796 5786 5803 5812 5803 5812 5821 5832 5831 5830 5832 5825 5829 5833 5856 5871 5848 5793 5817 5837
5723 5728 5733 5738 5743 5746 5750 5753 5756 5758 5759 5758 5758 5756 5763 5766 5819 5809 5809 5804 5804 5799 5801 5809 5805 5811 5803 5804 5806 5817 5817 5817 5824 5826 5827 5817 5822 5828 5833 5852 5856 5854 5841 5842 5837
5723 5729 5734 5739 5744 5748 5752 5755 5758 5759 5760 5759 5758 5762 5774 5787 5824 5815 5813 5807 5809 5808 5804 5815 5818 5804 5806 5796 5818 5813 5795 5807 5815 5819 5818 5826 5809 5815 5838 5847 5841 5838 5843 5847 5840
5724 5730 5735 5740 5745 5750 5754 5757 5759 5761 5760 5759 5758 5764 5775 5827 5823 5820 5815 5809 5814 5817 5815 5821 5818 5801 5797 5808 5803 5791 5795 5776 5811 5818 5821 5812 5789 5825 5840 5837 5832 5836 5833 5835 5834
5724 5730 5737 5742 5747 5751 5755 5758 5759 5760 5760 5758 5760 5767 5778 5816 5806 5819 5819 5804 5809 5811 5812 5813 5804 5788 5791 5778 5772 5785 5766 5779 5797 5826 5822 5807 5791 5820 5838 5834 5826 5829 5827 5828 5827
5726 5733 5738 5743 5747 5751 5754 5756 5758 5758 5760 5763 5773 5764 5793 5794 5812 5813 5818 5810 5798 5793 5788 5783 5776 5767 5774 5768 5749 5769 5780 5793 5791 5815 5818 5801 5798 5813 5824 5832 5824 5825 5823 5823 5823
5727 5732 5739 5744 5747 5749 5753 5759 5757 5755 5766 5775 5784 5783 5799 5808 5811 5799 5807 5796 5793 5780 5759 5772 5754 5751 5768 5778 5781 5781 5778 5776 5793 5817 5813 5800 5792 5805 5819 5826 5822 5813 5811 5811 5809
5724 5733 5740 5746 5747 5748 5750 5765 5766 5771 5758 5790 5794 5797 5804 5809 5782 5792 5804 5774 5770 5754 5764 5755 5747 5767 5778 5780 5776 5774 5765 5763 5779 5796 5793 5793 5789 5799 5814 5814 5810 5806 5801 5800 5790
5722 5730 5736 5745 5750 5753 5769 5766 5779 5779 5754 5787 5797 5793 5793 5794 5778 5780 5788 5773 5761 5751 5755 5748 5761 5778 5771 5765 5759 5763 5752 5752 5755 5777 5790 5783 5772 5779 5804 5804 5800 5798 5798 5792 5784
5719 5726 5734 5742 5747 5770 5766 5774 5777 5773 5737 5771 5777 5787 5789 5788 5770 5793 5793 5771 5759 5748 5756 5757 5774 5766 5765 5756 5754 5739 5765 5760 5753 5750 5736 5782 5740 5769 5786 5779 5780 5782 5774 5771 5768
5715 5722 5731 5729 5745 5757 5762 5771 5770 5760 5720 5774 5776 5799 5789 5772 5777 5774 5790 5772 5749 5750 5750 5746 5756 5757 5753 5756 5762 5747 5761 5755 5754 5750 5746 5750 5744 5769 5788 5769 5766 5763 5764 5762 5759
5711 5718 5723 5740 5745 5758 5764 5764 5755 5722 5715 5761 5776 5765 5761 5767 5767 5772 5766 5773 5767 5748 5751 5750 5769 5762 5760 5770 5764 5763 5747 5745 5740 5736 5717 5741 5740 5751 5774 5784 5769 5762 5753 5747 5748
5708 5720 5717 5730 5738 5754 5755 5748 5716 5716 5768 5753 5752 5756 5753 5751 5749 5750 5745 5736 5725 5713 5715 5735 5743 5758 5763 5743 5755 5746 5729 5700 5695 5705 5706 5748 5740 5754 5757 5779 5774 5755 5738 5731 5737
5707 5722 5730 5733 5742 5744 5739 5720 5696 5746 5750 5755 5744 5741 5728 5741 5743 5738 5729 5725 5745 5731 5713 5708 5707 5742 5748 5732 5715 5715 5706 5668 5628 5662 5706 5751 5725 5725 5742 5780 5770 5753 5734 5726 5721
5701 5725 5733 5735 5735 5734 5717 5701 5715 5732 5737 5727 5727 5716 5723 5737 5730 5724 5724 5718 5734 5724 5697 5693 5700 5720 5721 5717 5709 5704 5689 5697 5655 5655 5662 5700 5726 5721 5735 5731 5732 5722 5717 5711 5703
5685 5708 5726 5729 5728 5718 5700 5692 5716 5729 5720 5716 5698 5713 5705 5722 5719 5712 5708 5728 5720 5713 5712 5694 5672 5701 5706 5703 5703 5690 5690 5666 5675 5613 5605 5660 5680 5642 5656 5690 5710 5694 5692 5691 5688
5679 5697 5720 5718 5719 5701 5687 5707 5720 5721 5710 5696 5693 5694 5700 5700 5704 5703 5702 5713 5707 5699 5697 5684 5664 5671 5689 5684 5678 5672 5667 5648 5637 5636 5612 5613 5638 5623 5627 5638 5632 5645 5673 5666 5671
5666 5674 5711 5710 5685 5701 5694 5693 5684 5697 5697 5689 5687 5684 5679 5683 5681 5684 5682 5689 5688 5681 5668 5672 5652 5643 5658 5679 5681 5662 5644 5630 5609 5611 5594 5587 5596 5617 5611 5606 5618 5609 5607 5628 5643
5645 5670 5702 5694 5669 5675 5685 5688 5686 5681 5677 5675 5672 5678 5679 5668 5659 5670 5670 5680 5671 5662 5651 5652 5639 5621 5635 5655 5644 5630 5631 5626 5613 5582 5588 5582 5604 5627 5621 5605 5595 5596 5591 5611 5614
5635 5651 5671 5670 5672 5655 5650 5649 5656 5673 5670 5667 5659 5663 5657 5654 5660 5652 5654 5664 5658 5650 5635 5633 5622 5615 5608 5626 5626 5616 5619 5619 5605 5585 5593 5595 5602 5599 5601 5605 5606 5593 5588 5598 5607
5625 5634 5634 5630 5639 5630 5632 5635 5634 5638 5652 5655 5645 5647 5641 5634 5639 5639 5647 5648 5643 5626 5627 5618 5602 5614 5620 5626 5630 5629 5624 5621 5608 5606 5595 5603 5606 5601 5602 5604 5605 5604 5587 5605 5611
5597 5594 5605 5607 5615 5619 5620 5621 5624 5633 5633 5634 5631 5632 5631 5625 5631 5624 5636 5638 5633 5627 5613 5615 5595 5600 5597 5615 5619 5611 5618 5620 5620 5618 5615 5614 5611 5619 5618 5609 5604 5603 5599 5597 5600
5576 5577 5577 5589 5596 5601 5613 5618 5616 5614 5618 5618 5614 5611 5611 5618 5613 5616 5622 5622 5623 5620 5606 5601 5595 5589 5581 5600 5604 5595 5612 5613 5615 5622 5619 5605 5615 5619 5611 5602 5595 5595 5593 5589 5590